This demonstration page uses our WeatherBlox Daily Observations layout. Learn more.

Left ArrowRight Arrow

40.97296, -117.73568

Hourly Observations for October 1, 2022

Temp ( °F °C ) Dew Point ( °F °C ) Humidity (%) Winds ( mph kmh ) Pressure ( in mb ) Visibility ( mi km ) Precip ( " mm )
12:56 am 00:56 Clear 54 12.2 35 1.7 49 49 NE 8 13 29.97 1015 10 16 0.00 0.00
1:56 am 01:56 Clear 52 11.1 34 1.1 50 50 N 9 15 29.98 1015 10 16 0.00 0.00
2:56 am 02:56 Clear 49 9.4 34 1.1 56 56 NW 6 9 29.99 1016 10 16 0.00 0.00
3:56 am 03:56 Clear 51 10.6 36 2.2 56 56 NE 12 19 29.97 1015 10 16 0.00 0.00
4:56 am 04:56 Clear 47 8.3 35 1.7 63 63 NNE 8 13 29.98 1015 10 16 0.00 0.00
5:56 am 05:56 Clear 46 7.8 35 1.7 65 65 ESE 6 9 30.00 1016 10 16 0.00 0.00
6:56 am 06:56 Sunny 45 7.2 35 1.7 68 68 ESE 6 9 30.01 1016 10 16 0.00 0.00
7:56 am 07:56 Sunny 43 6.1 32 0 65 65 Calm 30.04 1017 10 16 0.00 0.00
8:56 am 08:56 Sunny 53 11.7 36 2.2 52 52 VRB 5 7 30.02 1017 10 16 0.00 0.00
9:56 am 09:56 Sunny 59 15 38 3.3 45 45 ENE 12 19 30.01 1016 10 16 0.00 0.00
10:56 am 10:56 Sunny 63 17.2 38 3.3 39 39 NNE 12 19 29.99 1016 10 16 0.00 0.00
11:56 am 11:56 Sunny 67 19.4 36 2.2 32 32 VRB 6 9 29.97 1015 10 16 0.00 0.00
12:56 pm 12:56 Sunny 66 18.9 34 1.1 30 30 SSW 5 7 29.95 1014 10 16 0.00 0.00
1:56 pm 13:56 Sunny 70 21.1 34 1.1 26 26 VRB 3 6 29.92 1013 10 16 0.00 0.00
2:56 pm 14:56 Sunny 69 20.6 33 0.6 26 26 VRB 6 9 29.92 1013 10 16 0.00 0.00
3:56 pm 15:56 Sunny 70 21.1 32 0 24 24 VRB 5 7 29.90 1012 10 16 0.00 0.00
4:56 pm 16:56 Sunny 72 22.2 31 -0.6 22 22 undefined N/A 29.90 1012 10 16 0.00 0.00
5:56 pm 17:56 Sunny 70 21.1 29 -1.7 22 22 NNE 6 9 29.90 1013 10 16 0.00 0.00
6:56 pm 18:56 Clear 63 17.2 29 -1.7 27 27 N 5 7 29.93 1014 10 16 0.00 0.00
7:56 pm 19:56 Clear 53 11.7 26 -3.3 35 35 Calm 29.97 1015 10 16 0.00 0.00
8:56 pm 20:56 Clear 47 8.3 25 -3.9 42 42 WNW 6 9 29.96 1015 10 16 0.00 0.00
9:56 pm 21:56 Clear 48 8.9 26 -3.3 42 42 Calm 29.95 1014 10 16 0.00 0.00
10:56 pm 22:56 Clear 40 4.4 22 -5.6 48 48 SE 7 11 29.97 1015 10 16 0.00 0.00
11:56 pm 23:56 Clear 45 7.2 26 -3.3 47 47 E 3 6 29.97 1015 10 16 0.00 0.00

Powered by AerisWeather